Lacon, IL

11:42 AM CST on January 24, 2017 (GMT -0600)
Lacon

Weather History for KC75 - March, 2013

Change the Weather History Date:

Wednesday, March 6, 2013

  Actual Average (KPIA) Record (KPIA)
Temperature  
Mean Temperature 26 °F -  
Max Temperature 29 °F 43 °F 75 °F (1956)
Min Temperature 24 °F 24 °F -10 °F (1960)
Degree Days  
Heating Degree Days 38    
Moisture  
Dew Point 22 °F    
Average Humidity 81    
Maximum Humidity 88    
Minimum Humidity 74    
Precipitation  
Precipitation 0.00 in - - ()
Sea Level Pressure  
Sea Level Pressure 30.26 in    
Wind  
Wind Speed 12 mph (NW)    
Max Wind Speed 17 mph    
Max Gust Speed 25 mph    
Visibility 10 miles    
Events      
Averages and records for this station are not official NWS values.
T = Trace of Precipitation, MM = Missing Value Source: NWS Daily Summary

Daily Weather History Graph

Daily Weather History Graph

Search for Another Location

Airport or City:

Trip Planner

Search our weather history database for the weather conditions in past years. The results will help you decide how hot, cold, wet, or windy it might be!

Date:

Astronomy

Mar. 06, 2013 Rise Set
Actual Time 6:23 AM CST 5:54 PM CST
Civil Twilight 5:55 AM CST 6:21 PM CST
Nautical Twilight 5:24 AM CST 6:53 PM CST
Astronomical Twilight 4:52 AM CST 7:25 PM CST
Moon 2:34 AM CST (3/6) 12:34 PM CST (3/6)
Length of Visible Light 12h 26m
Length of Day
11h 31m
Waning Crescent, 29% of the Moon is Illuminated
Mar 6
Waning Crescent
Mar 11
New
Mar 19
First Quarter
Mar 27
Full
Apr 2
Last Quarter

Hourly Weather History & Observations

Time (CST) Temp. Windchill Dew Point Humidity Pressure Visibility Wind Dir Wind Speed Gust Speed Precip Events Conditions
12:15 AM 27.1 °F 16.9 °F 23.9 °F 88% 30.07 in 10.0 mi NNW 11.5 mph - N/A   Unknown
12:35 AM 27.3 °F 16.1 °F 23.9 °F 87% 30.08 in 10.0 mi NNW 13.8 mph 19.6 mph N/A   Unknown
12:55 AM 27.5 °F 15.4 °F 23.9 °F 86% 30.09 in 10.0 mi NNW 16.1 mph 21.9 mph N/A   Unknown
1:15 AM 27.5 °F 15.0 °F 23.9 °F 86% 30.09 in 10.0 mi NNW 17.3 mph 25.3 mph N/A   Unknown
1:35 AM 27.7 °F 15.6 °F 23.9 °F 86% 30.10 in 10.0 mi NNW 16.1 mph 19.6 mph N/A   Unknown
1:55 AM 27.9 °F 15.5 °F 23.7 °F 84% 30.11 in 10.0 mi NNW 17.3 mph - N/A   Unknown
2:15 AM 27.9 °F 15.5 °F 23.7 °F 84% 30.11 in 10.0 mi NNW 17.3 mph 25.3 mph N/A   Unknown
2:35 AM 27.3 °F 16.1 °F 23.5 °F 86% 30.12 in 10.0 mi NNW 13.8 mph 20.7 mph N/A   Unknown
2:55 AM 27.0 °F 15.6 °F 23.0 °F 85% 30.13 in 10.0 mi NNW 13.8 mph 19.6 mph N/A   Unknown
3:15 AM 26.6 °F 14.7 °F 22.6 °F 85% 30.13 in 10.0 mi NNW 15.0 mph 19.6 mph N/A   Unknown
3:35 AM 26.4 °F 14.5 °F 22.5 °F 85% 30.14 in 10.0 mi NNW 15.0 mph - N/A   Unknown
3:55 AM 27.0 °F 15.6 °F 23.0 °F 85% 30.15 in 10.0 mi NNW 13.8 mph 19.6 mph N/A   Unknown
4:15 AM 27.1 °F 16.9 °F 23.0 °F 84% 30.17 in 10.0 mi NNW 11.5 mph 21.9 mph N/A   Unknown
4:35 AM 27.0 °F 16.7 °F 22.8 °F 84% 30.18 in 10.0 mi NNW 11.5 mph 19.6 mph N/A   Unknown
4:55 AM 26.2 °F 14.7 °F 22.1 °F 84% 30.18 in 10.0 mi NNW 13.8 mph - N/A   Unknown
5:15 AM 25.7 °F 17.1 °F 22.1 °F 86% 30.19 in 10.0 mi NW 8.1 mph - N/A   Unknown
5:35 AM 25.0 °F 14.2 °F 21.7 °F 87% 30.21 in 10.0 mi NW 11.5 mph - N/A   Unknown
5:55 AM 24.8 °F 12.4 °F 21.2 °F 86% 30.21 in 10.0 mi NW 15.0 mph - N/A   Unknown
6:15 AM 25.2 °F 13.3 °F 21.7 °F 87% 30.23 in 10.0 mi NW 13.8 mph - N/A   Unknown
6:35 AM 25.0 °F 15.5 °F 21.7 °F 87% 30.23 in 10.0 mi NW 9.2 mph - N/A   Unknown
6:55 AM 25.2 °F 14.4 °F 22.1 °F 88% 30.24 in 10.0 mi NW 11.5 mph 17.3 mph N/A   Unknown
7:15 AM 25.2 °F 14.4 °F 21.6 °F 86% 30.24 in 10.0 mi NW 11.5 mph - N/A   Unknown
7:35 AM 25.3 °F 13.6 °F 21.4 °F 85% 30.26 in 10.0 mi NW 13.8 mph - N/A   Unknown
7:55 AM 25.0 °F 14.8 °F 21.2 °F 86% 30.26 in 10.0 mi NW 10.4 mph - N/A   Unknown
8:15 AM 25.3 °F 16.0 °F 21.2 °F 84% 30.27 in 10.0 mi NW 9.2 mph - N/A   Unknown
8:35 AM 25.7 °F 18.0 °F 21.2 °F 83% 30.26 in 10.0 mi NW 6.9 mph - N/A   Unknown
8:55 AM 27.1 °F 18.2 °F 21.9 °F 81% 30.28 in 10.0 mi NW 9.2 mph - N/A   Unknown
9:15 AM 27.5 °F 17.4 °F 22.1 °F 80% 30.29 in 10.0 mi NW 11.5 mph - N/A   Unknown
9:35 AM 28.0 °F 17.0 °F 22.1 °F 78% 30.29 in 10.0 mi NW 13.8 mph 18.4 mph N/A   Unknown
9:55 AM 28.4 °F 17.5 °F 22.3 °F 78% 30.30 in 10.0 mi NW 13.8 mph 20.7 mph N/A   Unknown
10:15 AM 28.4 °F 17.5 °F 22.5 °F 78% 30.30 in 10.0 mi NW 13.8 mph 20.7 mph N/A   Unknown
10:35 AM 28.4 °F 17.5 °F 22.8 °F 80% 30.30 in 10.0 mi NW 13.8 mph 19.6 mph N/A   Unknown
10:55 AM 28.9 °F 19.2 °F 23.0 °F 78% 30.30 in 10.0 mi NW 11.5 mph - N/A   Unknown
11:15 AM 29.3 °F 18.6 °F 22.8 °F 77% 30.30 in 10.0 mi NW 13.8 mph 20.7 mph N/A   Unknown
11:35 AM 29.3 °F 18.6 °F 22.8 °F 77% 30.31 in 10.0 mi NW 13.8 mph - N/A   Unknown
11:55 AM 29.1 °F 18.4 °F 22.6 °F 77% 30.31 in 10.0 mi NW 13.8 mph - N/A   Unknown
12:15 PM 29.3 °F 19.6 °F 22.5 °F 76% 30.31 in 10.0 mi NW 11.5 mph 17.3 mph N/A   Unknown
12:35 PM 29.5 °F 19.3 °F 22.1 °F 74% 30.30 in 10.0 mi NW 12.7 mph - N/A   Unknown
12:55 PM 29.7 °F 19.6 °F 22.6 °F 75% 30.29 in 10.0 mi NW 12.7 mph - N/A   Unknown
1:15 PM 29.3 °F 19.1 °F 22.3 °F 75% 30.30 in 10.0 mi NW 12.7 mph - N/A   Unknown
1:35 PM 29.3 °F 18.6 °F 22.8 °F 77% 30.30 in 10.0 mi NNW 13.8 mph - N/A   Unknown
1:55 PM 29.1 °F 19.4 °F 22.3 °F 76% 30.30 in 10.0 mi NW 11.5 mph 20.7 mph N/A   Unknown
2:15 PM 29.3 °F 19.1 °F 22.5 °F 76% 30.30 in 10.0 mi NW 12.7 mph - N/A   Unknown
2:35 PM 29.3 °F 19.6 °F 22.8 °F 77% 30.30 in 10.0 mi NW 11.5 mph - N/A   Unknown
2:55 PM 29.3 °F 20.2 °F 23.0 °F 77% 30.31 in 10.0 mi NW 10.4 mph 16.1 mph N/A   Unknown
3:15 PM 29.1 °F 20.0 °F 22.8 °F 77% 30.31 in 10.0 mi NW 10.4 mph - N/A   Unknown
3:35 PM 29.1 °F 20.6 °F 23.0 °F 78% 30.32 in 10.0 mi NW 9.2 mph - N/A   Unknown
3:55 PM 28.9 °F 19.8 °F 23.0 °F 78% 30.32 in 10.0 mi NW 10.4 mph - N/A   Unknown
4:15 PM 28.9 °F 21.1 °F 23.0 °F 78% 30.32 in 10.0 mi NW 8.1 mph - N/A   Unknown
4:35 PM 28.9 °F 20.4 °F 23.0 °F 78% 30.32 in 10.0 mi NW 9.2 mph - N/A   Unknown
4:55 PM 28.4 °F 20.4 °F 22.6 °F 79% 30.32 in 10.0 mi NNW 8.1 mph - N/A   Unknown
5:15 PM 28.4 °F 20.4 °F 23.0 °F 80% 30.32 in 10.0 mi NW 8.1 mph - N/A   Unknown
5:35 PM 28.4 °F 21.2 °F 23.0 °F 80% 30.33 in 10.0 mi NW 6.9 mph - N/A   Unknown
5:55 PM 28.4 °F 22.2 °F 22.8 °F 80% 30.34 in 10.0 mi NW 5.8 mph - N/A   Unknown
6:15 PM 28.0 °F 21.7 °F 22.3 °F 79% 30.34 in 10.0 mi WNW 5.8 mph - N/A   Unknown
6:35 PM 28.0 °F 21.7 °F 22.6 °F 80% 30.34 in 10.0 mi NW 5.8 mph - N/A   Unknown
6:55 PM 27.7 °F 21.3 °F 22.5 °F 81% 30.34 in 10.0 mi WNW 5.8 mph - N/A   Unknown
7:15 PM 27.5 °F 20.2 °F 22.1 °F 80% 30.34 in 10.0 mi WNW 6.9 mph - N/A   Unknown
7:35 PM 27.5 °F 21.1 °F 22.1 °F 80% 30.34 in 10.0 mi WNW 5.8 mph - N/A   Unknown
7:55 PM 27.3 °F 20.9 °F 21.7 °F 80% 30.34 in 10.0 mi WNW 5.8 mph - N/A   Unknown
8:35 PM 27.1 °F 20.7 °F 21.7 °F 80% 30.33 in 10.0 mi WNW 5.8 mph - N/A   Unknown
8:55 PM 27.1 °F 20.7 °F 22.1 °F 81% 30.34 in 10.0 mi West 5.8 mph - N/A   Unknown
9:15 PM 27.0 °F - 21.9 °F 81% 30.34 in 10.0 mi Calm Calm - N/A   Unknown
9:35 PM 26.6 °F 22.6 °F 21.9 °F 82% 30.33 in 10.0 mi NW 3.5 mph - N/A   Unknown
9:55 PM 26.6 °F 21.2 °F 21.9 °F 82% 30.33 in 10.0 mi NW 4.6 mph - N/A   Unknown
10:15 PM 26.6 °F 19.1 °F 21.9 °F 82% 30.33 in 10.0 mi NW 6.9 mph - N/A   Unknown
10:35 PM 26.4 °F 20.9 °F 21.9 °F 83% 30.33 in 10.0 mi WNW 4.6 mph - N/A   Unknown
10:55 PM 26.4 °F 18.9 °F 21.9 °F 83% 30.33 in 10.0 mi WNW 6.9 mph - N/A   Unknown
11:15 PM 26.4 °F 19.8 °F 21.9 °F 83% 30.34 in 10.0 mi WNW 5.8 mph - N/A   Unknown
11:35 PM 26.4 °F 19.8 °F 21.9 °F 83% 30.34 in 10.0 mi WNW 5.8 mph - N/A   Unknown
11:55 PM 26.4 °F 19.8 °F 21.9 °F 83% 30.34 in 10.0 mi West 5.8 mph - N/A   Unknown